Sarasota, FL

9:42 PM EST on December 14, 2019 (GMT -0500)
Sarasota-bradenton

Weather History for KSRQ - October, 2019

Change the Weather History Date:

Wednesday, October 2, 2019

  Actual Average Record
Temperature  
Mean Temperature 84 °F 80 °F  
Max Temperature 93 °F 87 °F 94 °F (1986)
Min Temperature 75 °F 72 °F 57 °F (1984)
Degree Days  
Heating Degree Days 0 0  
Month to date heating degree days 0 0  
Since 1 July heating degree days 0 0  
Cooling Degree Days 19 15  
Month to date cooling degree days 39 30  
Year to date cooling degree days 3496 2819  
Growing Degree Days 34 (Base 50)    
Moisture  
Dew Point 70 °F    
Average Humidity 66    
Maximum Humidity 87    
Minimum Humidity 45    
Precipitation  
Precipitation 0.00 in 0.13 in 6.05 in (1957)
Month to date precipitation T 0.27  
Year to date precipitation 43.38 45.70  
Sea Level Pressure  
Sea Level Pressure 29.91 in    
Wind  
Wind Speed 9 mph ()    
Max Wind Speed 22 mph    
Max Gust Speed 27 mph    
Visibility 10.0 miles    
Events      
T = Trace of Precipitation, MM = Missing Value Source: Averaged Metar Reports

Daily Weather History Graph

Daily Weather History Graph

Search for Another Location

Airport or City:

Astronomy

Oct. 02, 2019 Rise Set
Actual Time 7:23 AM EDT 7:15 PM EDT
Civil Twilight 6:59 AM EDT 7:38 PM EDT
Nautical Twilight 6:32 AM EDT 8:05 PM EDT
Astronomical Twilight 6:05 AM EDT 8:32 PM EDT
Moon 11:26 AM EDT (10/2) 10:31 PM EDT (10/2)
Length of Visible Light 12h 38m
Length of Day
11h 52m
Waxing Crescent, 20% of the Moon is Illuminated
Oct 2
Waxing Crescent
Oct 5
First Quarter
Oct 13
Full
Oct 21
Last Quarter
Oct 27
New

Hourly Weather History & Observations

Time (EDT) Temp. Heat Index Dew Point Humidity Pressure Visibility Wind Dir Wind Speed Gust Speed Precip Events Conditions
12:53 AM 78.1 °F - 71.1 °F 79% 29.93 in 10.0 mi ENE 9.2 mph - N/A   Clear
1:53 AM 77.0 °F - 71.1 °F 82% 29.91 in 10.0 mi NE 6.9 mph - N/A   Clear
2:53 AM 77.0 °F - 71.1 °F 82% 29.90 in 10.0 mi ENE 6.9 mph - N/A   Clear
3:53 AM 75.9 °F - 71.1 °F 85% 29.88 in 10.0 mi NE 5.8 mph - N/A   Clear
4:53 AM 75.9 °F - 71.1 °F 85% 29.89 in 10.0 mi NE 5.8 mph - N/A   Clear
5:53 AM 75.0 °F - 71.1 °F 87% 29.90 in 10.0 mi NNE 6.9 mph - N/A   Clear
6:53 AM 75.0 °F - 71.1 °F 87% 29.91 in 10.0 mi NE 8.1 mph - N/A   Clear
7:53 AM 75.9 °F - 71.1 °F 85% 29.92 in 10.0 mi NE 8.1 mph - N/A   Clear
8:53 AM 79.0 °F - 72.0 °F 79% 29.93 in 10.0 mi NE 8.1 mph - N/A   Clear
9:53 AM 82.9 °F 88.0 °F 72.0 °F 69% 29.94 in 10.0 mi ENE 12.7 mph - N/A   Partly Cloudy
10:53 AM 84.9 °F 90.7 °F 72.0 °F 65% 29.94 in 10.0 mi East 12.7 mph - N/A   Scattered Clouds
11:53 AM 89.1 °F 94.1 °F 70.0 °F 53% 29.94 in 10.0 mi East 15.0 mph 24.2 mph N/A   Scattered Clouds
12:53 PM 91.0 °F 95.6 °F 69.1 °F 48% 29.92 in 10.0 mi ENE 17.3 mph 21.9 mph N/A   Scattered Clouds
1:53 PM 90.0 °F 93.6 °F 68.0 °F 48% 29.90 in 10.0 mi ENE 12.7 mph - N/A   Mostly Cloudy
2:53 PM 91.9 °F 96.9 °F 69.1 °F 47% 29.88 in 10.0 mi East 12.7 mph - N/A   Mostly Cloudy
3:53 PM 93.0 °F 97.9 °F 69.1 °F 45% 29.86 in 10.0 mi East 11.5 mph 24.2 mph N/A   Clear
4:53 PM 91.9 °F 95.9 °F 68.0 °F 45% 29.85 in 10.0 mi East 16.1 mph 21.9 mph N/A   Partly Cloudy
5:53 PM 91.0 °F 95.2 °F 68.0 °F 47% 29.85 in 10.0 mi East 17.3 mph 21.9 mph N/A   Clear
6:53 PM 88.0 °F 90.7 °F 66.9 °F 49% 29.86 in 10.0 mi East 11.5 mph - N/A   Clear
7:53 PM 86.0 °F 88.8 °F 66.9 °F 53% 29.88 in 10.0 mi East 11.5 mph - N/A   Clear
8:53 PM 82.9 °F 85.8 °F 68.0 °F 60% 29.91 in 10.0 mi East 12.7 mph - N/A   Clear
9:53 PM 82.0 °F 85.5 °F 69.1 °F 65% 29.93 in 10.0 mi East 10.4 mph - N/A   Clear
10:53 PM 80.1 °F 83.2 °F 70.0 °F 71% 29.95 in 10.0 mi East 8.1 mph - N/A   Clear
11:53 PM 78.1 °F - 70.0 °F 76% 29.95 in 10.0 mi East 8.1 mph - N/A   Clear